Lyndonville, VT

1:09 PM EST on December 16, 2017 (GMT -0500)
Lyndonville

Weather History for KCDA - February, 2013

Change the Weather History Date:

Thursday, February 21, 2013

  Actual Average (K1V4) Record (K1V4)
Temperature  
Mean Temperature 14 °F -  
Max Temperature 22 °F 30 °F 62 °F (1981)
Min Temperature 7 °F 8 °F -20 °F (1993)
Degree Days  
Heating Degree Days 50    
Moisture  
Dew Point 7 °F    
Average Humidity 70    
Maximum Humidity 79    
Minimum Humidity 63    
Precipitation  
Precipitation 0.00 in - - ()
Sea Level Pressure  
Sea Level Pressure 29.93 in    
Wind  
Wind Speed 12 mph (SW)    
Max Wind Speed 23 mph    
Max Gust Speed 38 mph    
Visibility 6 miles    
Events Snow    
Averages and records for this station are not official NWS values.
T = Trace of Precipitation, MM = Missing Value Source: NWS Daily Summary

Daily Weather History Graph

Daily Weather History Graph

Search for Another Location

Airport or City:

Trip Planner

Search our weather history database for the weather conditions in past years. The results will help you decide how hot, cold, wet, or windy it might be!

Date:

Astronomy

Feb. 21, 2013 Rise Set
Actual Time 6:38 AM EST 5:25 PM EST
Civil Twilight 6:08 AM EST 5:55 PM EST
Nautical Twilight 5:35 AM EST 6:28 PM EST
Astronomical Twilight 5:01 AM EST 7:02 PM EST
Moon 1:31 PM EST (2/21) 3:47 AM EST (2/21)
Length of Visible Light 11h 46m
Length of Day
10h 46m
Waxing Gibbous, 83% of the Moon is Illuminated
Feb 21
Waxing Gibbous
Feb 25
Full
Mar 4
Last Quarter
Mar 11
New
Mar 19
First Quarter

Hourly Weather History & Observations

Time (EST) Temp. Windchill Dew Point Humidity Pressure Visibility Wind Dir Wind Speed Gust Speed Precip Events Conditions
12:15 AM 19.2 °F 4.7 °F 11.3 °F 71% 29.66 in 7.0 mi SW 16.1 mph 21.9 mph N/A Snow Light Snow
12:35 AM 18.3 °F 1.0 °F 9.9 °F 70% 29.67 in 4.0 mi SW 23.0 mph 31.1 mph N/A Snow Light Snow
12:55 AM 16.7 °F 2.0 °F 7.5 °F 67% 29.69 in 2.0 mi SW 15.0 mph 38.0 mph N/A Snow Light Snow
1:15 AM 15.8 °F 6.1 °F 7.3 °F 69% 29.70 in 4.0 mi SW 6.9 mph 18.4 mph N/A Snow Light Snow
1:35 AM 15.6 °F 4.9 °F 7.9 °F 72% 29.71 in 2.5 mi SW 8.1 mph - N/A Snow Light Snow
1:55 AM 14.0 °F -3.0 °F 5.0 °F 67% 29.70 in 4.0 mi SW 18.4 mph 28.8 mph N/A Snow Light Snow
2:15 AM 13.5 °F -3.2 °F 4.8 °F 68% 29.71 in 5.0 mi SW 17.3 mph 24.2 mph N/A   Haze
2:35 AM 13.1 °F -2.6 °F 3.9 °F 67% 29.71 in 7.0 mi SW 15.0 mph 25.3 mph N/A   Unknown
2:55 AM 12.6 °F -3.3 °F 3.4 °F 67% 29.71 in 10.0 mi SW 15.0 mph 27.6 mph N/A   Unknown
3:15 AM 12.0 °F -2.7 °F 2.3 °F 65% 29.72 in 7.0 mi SW 12.7 mph 21.9 mph N/A   Unknown
3:35 AM 11.8 °F -2.3 °F 1.6 °F 63% 29.72 in 10.0 mi SW 11.5 mph 25.3 mph N/A   Unknown
3:55 AM 11.7 °F -1.7 °F 1.8 °F 65% 29.73 in 10.0 mi SW 10.4 mph 17.3 mph N/A   Unknown
4:15 AM 11.3 °F -2.2 °F 1.9 °F 66% 29.74 in 10.0 mi SW 10.4 mph - N/A Snow Light Snow
4:35 AM 10.6 °F -1.3 °F 1.0 °F 65% 29.73 in 10.0 mi SW 8.1 mph - N/A Snow Light Snow
4:55 AM 9.9 °F -6.7 °F 0.3 °F 65% 29.75 in 7.0 mi SW 15.0 mph 23.0 mph N/A   Unknown
5:15 AM 9.5 °F -3.5 °F 0.5 °F 67% 29.76 in 5.0 mi SW 9.2 mph 19.6 mph N/A   Haze
5:35 AM 9.1 °F -8.2 °F 1.0 °F 70% 29.76 in 2.5 mi SW 16.1 mph 23.0 mph N/A Snow Light Snow
6:15 AM 8.4 °F -9.2 °F 0.3 °F 70% 29.77 in 3.0 mi SW 16.1 mph 23.0 mph N/A Snow Light Snow
6:55 AM 7.5 °F -6.0 °F -0.0 °F 71% 29.80 in 2.5 mi SW 9.2 mph - N/A Snow Light Snow
7:15 AM 7.3 °F -5.2 °F -0.4 °F 71% 29.81 in 2.5 mi SW 8.1 mph - N/A   Haze
7:35 AM 7.3 °F -9.3 °F -1.3 °F 68% 29.81 in 4.0 mi SW 13.8 mph 18.4 mph N/A   Haze
7:55 AM 7.5 °F -6.9 °F -1.8 °F 66% 29.83 in 5.0 mi SW 10.4 mph - N/A   Haze
8:15 AM 7.7 °F -4.8 °F -1.7 °F 66% 29.84 in 3.0 mi SW 8.1 mph - N/A Snow Light Snow
8:35 AM 7.7 °F -2.4 °F -1.1 °F 67% 29.84 in 3.0 mi SW 5.8 mph - N/A Snow Light Snow
8:55 AM 8.2 °F -4.1 °F -0.6 °F 67% 29.84 in 3.0 mi SW 8.1 mph - N/A Snow Light Snow
9:15 AM 7.9 °F -8.0 °F -0.6 °F 68% 29.85 in 1.5 mi SW 12.7 mph 18.4 mph N/A Snow Light Snow
9:35 AM 8.6 °F -2.6 °F -0.6 °F 66% 29.86 in 2.0 mi SW 6.9 mph - N/A Snow Light Snow
9:55 AM 9.5 °F -3.5 °F -0.4 °F 64% 29.86 in 2.5 mi SW 9.2 mph - N/A Snow Light Snow
10:15 AM 10.2 °F -2.7 °F 0.5 °F 65% 29.86 in 2.5 mi SW 9.2 mph - N/A Snow Light Snow
10:35 AM 11.3 °F -2.9 °F 0.9 °F 63% 29.87 in 2.5 mi SW 11.5 mph - N/A Snow Light Snow
10:55 AM 11.7 °F -2.5 °F 1.6 °F 64% 29.88 in 3.0 mi SW 11.5 mph - N/A Snow Light Snow
11:15 AM 12.2 °F 2.9 °F 2.1 °F 64% 29.88 in 2.5 mi SW 5.8 mph - N/A Snow Light Snow
11:35 AM 12.7 °F -1.1 °F 2.8 °F 65% 29.88 in 1.8 mi SW 11.5 mph - N/A Snow Light Snow
12:15 PM 13.8 °F 1.8 °F 4.6 °F 67% 29.89 in 3.0 mi SW 9.2 mph - N/A Snow Light Snow
12:35 PM 14.0 °F 0.5 °F 3.9 °F 64% 29.90 in 3.0 mi SW 11.5 mph - N/A Snow Light Snow
12:55 PM 14.4 °F 3.3 °F 4.5 °F 65% 29.90 in 3.0 mi SW 8.1 mph - N/A Snow Light Snow
1:15 PM 14.5 °F 4.6 °F 5.2 °F 66% 29.91 in 2.0 mi SW 6.9 mph - N/A Snow Light Snow
1:35 PM 15.1 °F 4.2 °F 5.9 °F 67% 29.92 in 2.5 mi SW 8.1 mph - N/A Snow Light Snow
1:55 PM 16.2 °F 5.5 °F 6.8 °F 67% 29.92 in 4.0 mi SW 8.1 mph - N/A Snow Light Snow
2:15 PM 16.7 °F 4.5 °F 6.1 °F 63% 29.93 in 4.0 mi SW 10.4 mph 16.1 mph N/A Snow Light Snow
2:35 PM 17.2 °F 6.8 °F 7.0 °F 64% 29.94 in 4.0 mi SW 8.1 mph - N/A Snow Light Snow
2:55 PM 16.7 °F 8.3 °F 8.6 °F 70% 29.96 in 1.5 mi SW 5.8 mph - N/A Snow Light Snow
3:15 PM 16.7 °F 8.3 °F 8.4 °F 70% 29.97 in 1.8 mi SW 5.8 mph - N/A Snow Light Snow
3:35 PM 17.1 °F 5.8 °F 8.4 °F 69% 29.98 in 4.0 mi SW 9.2 mph - N/A Snow Light Snow
3:55 PM 17.1 °F 7.6 °F 9.0 °F 71% 29.99 in 3.0 mi SW 6.9 mph - N/A Snow Light Snow
4:15 PM 16.7 °F 8.3 °F 9.0 °F 72% 30.01 in 2.5 mi SW 5.8 mph - N/A Snow Light Snow
4:35 PM 16.9 °F 8.5 °F 9.0 °F 71% 30.03 in 3.0 mi SW 5.8 mph - N/A Snow Light Snow
4:55 PM 16.9 °F 5.5 °F 9.3 °F 72% 30.04 in 5.0 mi SW 9.2 mph - N/A Snow Light Snow
5:15 PM 16.9 °F 4.1 °F 9.3 °F 72% 30.05 in 5.0 mi SW 11.5 mph 17.3 mph N/A Snow Light Snow
5:35 PM 16.5 °F 4.3 °F 9.5 °F 74% 30.07 in 7.0 mi SW 10.4 mph - N/A Snow Light Snow
5:55 PM 16.7 °F 7.2 °F 10.0 °F 75% 30.08 in 7.0 mi SW 6.9 mph - N/A   Unknown
6:15 PM 16.7 °F - 10.0 °F 75% 30.10 in 10.0 mi Calm Calm - N/A   Unknown
6:35 PM 16.5 °F 11.0 °F 10.2 °F 76% 30.11 in 10.0 mi SW 3.5 mph - N/A   Unknown
6:55 PM 17.1 °F 8.7 °F 10.9 °F 77% 30.12 in 7.0 mi SW 5.8 mph - N/A   Unknown
7:15 PM 18.3 °F 9.1 °F 11.8 °F 76% 30.13 in 7.0 mi SW 6.9 mph - N/A Snow Light Snow
7:35 PM 18.1 °F 12.9 °F 11.7 °F 76% 30.15 in 10.0 mi SW 3.5 mph - N/A Snow Light Snow
7:55 PM 19.9 °F 10.1 °F 13.1 °F 75% 30.15 in 10.0 mi SW 8.1 mph - N/A   Unknown
8:15 PM 19.2 °F 9.3 °F 12.9 °F 76% 30.16 in 10.0 mi SW 8.1 mph - N/A   Unknown
8:35 PM 19.4 °F 8.6 °F 13.3 °F 77% 30.15 in 10.0 mi SW 9.2 mph 16.1 mph N/A   Unknown
8:55 PM 20.3 °F 9.8 °F 14.4 °F 78% 30.16 in 10.0 mi SW 9.2 mph - N/A   Unknown
9:15 PM 21.2 °F 12.6 °F 15.1 °F 77% 30.17 in 10.0 mi SW 6.9 mph 19.6 mph N/A   Unknown
9:35 PM 21.6 °F 10.6 °F 15.4 °F 77% 30.17 in 10.0 mi SW 10.4 mph - N/A   Unknown
9:55 PM 21.7 °F 11.5 °F 15.8 °F 78% 30.17 in 10.0 mi SW 9.2 mph - N/A   Unknown
10:15 PM 22.1 °F 13.7 °F 15.8 °F 77% 30.18 in 10.0 mi SW 6.9 mph - N/A   Unknown
10:35 PM 22.5 °F 12.4 °F 16.2 °F 77% 30.19 in 10.0 mi SW 9.2 mph - N/A   Unknown
10:55 PM 20.5 °F 10.8 °F 14.4 °F 77% 30.21 in 10.0 mi SW 8.1 mph - N/A   Unknown
11:15 PM 20.3 °F 10.6 °F 14.5 °F 78% 30.23 in 10.0 mi SW 8.1 mph - N/A   Unknown
11:35 PM 20.7 °F 11.9 °F 15.1 °F 79% 30.24 in 10.0 mi SW 6.9 mph - N/A   Unknown
11:55 PM 22.3 °F 12.2 °F 16.3 °F 78% 30.27 in 10.0 mi SW 9.2 mph 17.3 mph N/A   Unknown